When you browse on this site, cookies collect data to enhance your experience and personalize the content and advertising you see.
Visit our Privacy Policy to learn more. By continuing to use the site, you agree to this use of cookies and data.
  • en Belgique
  • Liste des pays
  • À 7 jours
  • Température de l'eau
  • Carte satellitaire
  • Carte météo
  • Widgets météo
  • user-avatar
    Se connecter

    Météo par heure à Fier

    Ce jour, 19 Novembre, Lundi

    Heure Température Précipitation Vent Pression Humidité
    00:00 +9°C° 0 mm 2 m/s 756 mmHg 83%
    01:00 +9°C° 0 mm 2 m/s 756 mmHg 83%
    02:00 +9°C° 0 mm 2 m/s 756 mmHg 83%
    03:00 +9°C° 0 mm 2 m/s 756 mmHg 83%
    04:00 +8°C° 0 mm 2 m/s 756 mmHg 83%
    05:00 +9°C° 0 mm 2 m/s 757 mmHg 82%
    06:00 +9°C° 0 mm 2 m/s 757 mmHg 81%
    07:00 +9°C° 0 mm 2 m/s 757 mmHg 81%
    08:00 +10°C° 0 mm 2 m/s 757 mmHg 75%
    09:00 +13°C° 0 mm 2 m/s 758 mmHg 70%
    10:00 +13°C° 0 mm 3 m/s 758 mmHg 65%
    11:00 +14°C° 0 mm 3 m/s 758 mmHg 63%
    12:00 +16°C° 0 mm 3 m/s 758 mmHg 61%
    13:00 +17°C° 0 mm 3 m/s 758 mmHg 59%
    14:00 +15°C° 0 mm 4 m/s 758 mmHg 63%
    15:00 +14°C° 0 mm 4 m/s 757 mmHg 67%
    16:00 +14°C° 0 mm 5 m/s 757 mmHg 72%
    17:00 +13°C° 0.2 mm 6 m/s 757 mmHg 75%
    18:00 +13°C° 0.2 mm 6 m/s 757 mmHg 77%
    19:00 +11°C° 0.2 mm 7 m/s 757 mmHg 80%
    20:00 +11°C° 0.8 mm 7 m/s 757 mmHg 81%
    21:00 +11°C° 0.8 mm 7 m/s 757 mmHg 81%
    22:00 +11°C° 0.8 mm 8 m/s 757 mmHg 82%
    23:00 +12°C° 1.2 mm 8 m/s 757 mmHg 82%

    Demain, 20 Novembre, Mardi

    Heure Température Précipitation Vent Pression Humidité
    00:00 +12°C° 1.2 mm 8 m/s 757 mmHg 83%
    01:00 +12°C° 1.2 mm 9 m/s 757 mmHg 84%
    02:00 +12°C° 1.6 mm 9 m/s 757 mmHg 84%
    03:00 +12°C° 1.6 mm 9 m/s 757 mmHg 84%
    04:00 +12°C° 1.6 mm 9 m/s 757 mmHg 84%
    05:00 +12°C° 2.6 mm 9 m/s 757 mmHg 84%
    06:00 +12°C° 2.6 mm 9 m/s 757 mmHg 84%
    07:00 +12°C° 2.6 mm 9 m/s 757 mmHg 84%
    08:00 +13°C° 2.2 mm 8 m/s 757 mmHg 83%
    09:00 +13°C° 2.2 mm 8 m/s 757 mmHg 83%
    10:00 +15°C° 2.2 mm 8 m/s 757 mmHg 82%
    11:00 +15°C° 1.8 mm 8 m/s 757 mmHg 83%
    12:00 +15°C° 1.8 mm 8 m/s 757 mmHg 84%
    13:00 +15°C° 1.8 mm 8 m/s 756 mmHg 85%
    14:00 +15°C° 0.6 mm 8 m/s 756 mmHg 85%
    15:00 +15°C° 0.6 mm 8 m/s 756 mmHg 84%
    16:00 +15°C° 0.6 mm 8 m/s 756 mmHg 84%
    17:00 +15°C° 1 mm 8 m/s 756 mmHg 85%
    18:00 +15°C° 1 mm 8 m/s 756 mmHg 86%
    19:00 +14°C° 1 mm 7 m/s 756 mmHg 87%
    20:00 +14°C° 0.7 mm 7 m/s 756 mmHg 87%
    21:00 +14°C° 0.7 mm 7 m/s 756 mmHg 87%
    22:00 +14°C° 0.7 mm 7 m/s 756 mmHg 86%
    23:00 +14°C° 2.1 mm 6 m/s 755 mmHg 87%

    Après-demain, 21 Novembre, Mercredi

    Heure Température Précipitation Vent Pression Humidité
    00:00 +14°C° 2.1 mm 6 m/s 755 mmHg 88%
    01:00 +14°C° 2.1 mm 6 m/s 754 mmHg 88%
    02:00 +14°C° 2.2 mm 5 m/s 754 mmHg 88%
    03:00 +14°C° 2.2 mm 5 m/s 754 mmHg 88%
    04:00 +14°C° 2.2 mm 5 m/s 754 mmHg 88%
    05:00 +14°C° 1.1 mm 5 m/s 754 mmHg 89%
    06:00 +13°C° 1.1 mm 4 m/s 754 mmHg 89%
    07:00 +13°C° 1.1 mm 4 m/s 755 mmHg 90%
    08:00 +14°C° 1.4 mm 4 m/s 755 mmHg 91%
    09:00 +14°C° 1.4 mm 5 m/s 756 mmHg 91%
    10:00 +14°C° 1.4 mm 5 m/s 756 mmHg 92%
    11:00 +14°C° 1.6 mm 5 m/s 756 mmHg 90%
    12:00 +15°C° 1.6 mm 5 m/s 756 mmHg 89%
    13:00 +15°C° 1.6 mm 5 m/s 756 mmHg 88%
    14:00 +15°C° 1.6 mm 5 m/s 756 mmHg 89%
    15:00 +15°C° 1.6 mm 5 m/s 756 mmHg 91%
    16:00 +14°C° 1.6 mm 4 m/s 757 mmHg 93%
    17:00 +14°C° 1 mm 4 m/s 757 mmHg 94%
    18:00 +14°C° 1 mm 4 m/s 758 mmHg 95%
    19:00 +14°C° 1 mm 4 m/s 758 mmHg 96%
    20:00 +14°C° 0.7 mm 3 m/s 758 mmHg 96%
    21:00 +14°C° 0.7 mm 3 m/s 759 mmHg 96%
    22:00 +14°C° 0.7 mm 3 m/s 759 mmHg 95%
    23:00 +13°C° 0.4 mm 3 m/s 760 mmHg 95%

    22 Novembre, Jeudi

    Heure Température Précipitation Vent Pression Humidité
    00:00 +13°C° 0.4 mm 3 m/s 760 mmHg 95%
    01:00 +13°C° 0.4 mm 3 m/s 760 mmHg 95%
    02:00 +13°C° 0.2 mm 3 m/s 760 mmHg 94%
    03:00 +13°C° 0.2 mm 2 m/s 760 mmHg 93%
    04:00 +13°C° 0.2 mm 2 m/s 760 mmHg 93%
    05:00 +13°C° 0.1 mm 2 m/s 761 mmHg 92%
    06:00 +13°C° 0.1 mm 2 m/s 761 mmHg 91%
    07:00 +13°C° 0.1 mm 2 m/s 761 mmHg 90%
    08:00 +15°C° 0.1 mm 2 m/s 762 mmHg 85%
    09:00 +16°C° 0.1 mm 2 m/s 762 mmHg 79%
    10:00 +17°C° 0.1 mm 2 m/s 763 mmHg 73%
    11:00 +18°C° 0 mm 2 m/s 762 mmHg 71%
    12:00 +18°C° 0 mm 2 m/s 762 mmHg 68%
    13:00 +19°C° 0 mm 3 m/s 762 mmHg 65%
    14:00 +18°C° 0 mm 3 m/s 762 mmHg 69%
    15:00 +17°C° 0 mm 3 m/s 763 mmHg 74%
    16:00 +16°C° 0 mm 2 m/s 763 mmHg 78%
    17:00 +15°C° 0 mm 2 m/s 763 mmHg 81%
    18:00 +15°C° 0 mm 2 m/s 764 mmHg 83%
    19:00 +14°C° 0 mm 2 m/s 764 mmHg 86%
    20:00 +14°C° 0 mm 2 m/s 764 mmHg 86%
    21:00 +13°C° 0 mm 2 m/s 765 mmHg 86%
    22:00 +13°C° 0 mm 2 m/s 765 mmHg 86%
    23:00 +13°C° 0 mm 2 m/s 765 mmHg 85%

    23 Novembre, Vendredi

    Heure Température Précipitation Vent Pression Humidité
    00:00 +13°C° 0 mm 2 m/s 765 mmHg 85%
    01:00 +12°C° 0 mm 2 m/s 766 mmHg 84%
    02:00 +12°C° 0 mm 2 m/s 766 mmHg 84%
    03:00 +12°C° 0 mm 2 m/s 766 mmHg 83%
    04:00 +12°C° 0 mm 2 m/s 766 mmHg 82%
    05:00 +12°C° 0 mm 2 m/s 766 mmHg 82%
    06:00 +12°C° 0 mm 2 m/s 767 mmHg 82%
    07:00 +12°C° 0 mm 2 m/s 767 mmHg 81%
    08:00 +13°C° 0 mm 2 m/s 767 mmHg 75%
    09:00 +15°C° 0 mm 2 m/s 767 mmHg 69%
    10:00 +17°C° 0 mm 2 m/s 767 mmHg 63%
    11:00 +18°C° 0 mm 2 m/s 767 mmHg 60%
    12:00 +18°C° 0 mm 2 m/s 767 mmHg 57%
    13:00 +19°C° 0 mm 2 m/s 767 mmHg 55%
    14:00 +18°C° 0 mm 2 m/s 767 mmHg 59%
    15:00 +17°C° 0 mm 2 m/s 767 mmHg 64%
    16:00 +16°C° 0 mm 3 m/s 767 mmHg 68%
    17:00 +15°C° 0 mm 2 m/s 767 mmHg 70%
    18:00 +14°C° 0 mm 2 m/s 767 mmHg 73%
    19:00 +14°C° 0 mm 2 m/s 767 mmHg 75%
    20:00 +13°C° 0 mm 2 m/s 767 mmHg 75%
    21:00 +13°C° 0 mm 2 m/s 768 mmHg 75%
    22:00 +13°C° 0 mm 2 m/s 768 mmHg 75%
    23:00 +12°C° 0 mm 2 m/s 768 mmHg 75%

    24 Novembre, Samedi

    Heure Température Précipitation Vent Pression Humidité
    00:00 +12°C° 0 mm 2 m/s 767 mmHg 75%
    01:00 +12°C° 0 mm 2 m/s 767 mmHg 75%
    02:00 +12°C° 0 mm 2 m/s 767 mmHg 75%
    03:00 +10°C° 0 mm 2 m/s 767 mmHg 75%
    04:00 +10°C° 0 mm 2 m/s 767 mmHg 75%
    05:00 +10°C° 0 mm 2 m/s 767 mmHg 74%
    06:00 +10°C° 0 mm 3 m/s 767 mmHg 74%
    07:00 +10°C° 0 mm 3 m/s 767 mmHg 74%
    08:00 +12°C° 0 mm 3 m/s 766 mmHg 68%
    09:00 +14°C° 0 mm 3 m/s 766 mmHg 61%
    10:00 +17°C° 0 mm 3 m/s 766 mmHg 55%
    11:00 +17°C° 0 mm 3 m/s 766 mmHg 53%
    12:00 +18°C° 0 mm 3 m/s 765 mmHg 52%
    13:00 +18°C° 0 mm 3 m/s 765 mmHg 50%
    14:00 +17°C° 0 mm 3 m/s 765 mmHg 55%
    15:00 +17°C° 0 mm 4 m/s 764 mmHg 61%
    16:00 +15°C° 0 mm 4 m/s 764 mmHg 66%
    17:00 +14°C° 0 mm 4 m/s 764 mmHg 67%
    18:00 +14°C° 0 mm 4 m/s 764 mmHg 68%
    19:00 +14°C° 0 mm 5 m/s 764 mmHg 69%
    20:00 +13°C° 0 mm 5 m/s 764 mmHg 72%
    21:00 +13°C° 0 mm 6 m/s 763 mmHg 75%
    22:00 +11°C° 0 mm 6 m/s 763 mmHg 77%
    23:00 +11°C° 0.2 mm 6 m/s 763 mmHg 79%
    Voir plus